Time,TemperatureF,DewpointF,PressureIn,WindDirection,WindDirectionDegrees,WindSpeedMPH,WindSpeedGustMPH,Humidity,HourlyPrecipIn,Conditions,Clouds,dailyrainin,SoftwareType,DateUTC
2013-09-06 00:00:00,55.2,45.1,30.20,NE,44,0.0,239.4,69,1.02,,,0.00,VWS V14.01,2013-09-06 04:00:00,
2013-09-06 00:01:00,56.6,44.6,30.19,NE,41,0.0,239.4,64,1.02,,,0.00,VWS V14.01,2013-09-06 04:01:00,
2013-09-06 00:02:00,56.5,44.5,30.19,NNE,30,0.0,239.4,64,1.02,,,0.00,VWS V14.01,2013-09-06 04:02:00,
2013-09-06 00:03:00,55.2,45.0,30.20,NE,51,0.0,239.4,68,1.02,,,0.00,VWS V14.01,2013-09-06 04:03:00,
2013-09-06 00:04:00,56.4,44.6,30.19,NE,48,2.3,239.4,64,1.02,,,0.00,VWS V14.01,2013-09-06 04:04:00,
2013-09-06 00:05:00,55.2,45.4,30.20,NE,51,0.0,239.4,69,1.02,,,0.00,VWS V14.01,2013-09-06 04:05:00,
2013-09-06 00:06:00,55.2,45.5,30.20,NE,52,0.0,239.4,70,1.02,,,0.00,VWS V14.01,2013-09-06 04:06:00,
2013-09-06 00:07:00,55.1,45.3,30.19,NE,52,0.0,239.4,70,1.02,,,0.00,VWS V14.01,2013-09-06 04:07:00,
2013-09-06 00:08:00,55.2,45.3,30.20,NE,52,0.0,239.4,69,1.02,,,0.00,VWS V14.01,2013-09-06 04:08:00,
2013-09-06 00:09:00,55.1,45.3,30.20,NE,35,3.0,239.4,70,1.02,,,0.00,VWS V14.01,2013-09-06 04:09:00,
2013-09-06 00:10:00,56.3,44.7,30.19,NE,48,0.0,239.4,65,1.02,,,0.00,VWS V14.01,2013-09-06 04:10:00,
2013-09-06 00:11:00,55.0,44.9,30.20,NE,44,0.0,239.4,69,1.02,,,0.00,VWS V14.01,2013-09-06 04:11:00,
2013-09-06 00:12:00,55.0,44.7,30.20,NE,44,0.0,239.4,68,1.02,,,0.00,VWS V14.01,2013-09-06 04:12:00,
2013-09-06 00:13:00,55.1,44.9,30.20,NE,44,0.0,239.4,68,1.02,,,0.00,VWS V14.01,2013-09-06 04:13:00,
2013-09-06 00:14:00,55.1,44.9,30.20,NE,44,0.0,239.4,68,1.02,,,0.00,VWS V14.01,2013-09-06 04:14:00,
2013-09-06 00:15:00,56.1,45.0,30.19,NE,48,0.0,239.4,66,1.02,,,0.00,VWS V14.01,2013-09-06 04:15:00,
2013-09-06 00:17:00,55.1,45.0,30.20,NE,44,0.0,239.4,69,1.02,,,0.00,VWS V14.01,2013-09-06 04:17:00,
2013-09-06 00:18:00,55.0,45.2,30.20,ENE,59,4.5,239.4,69,1.02,,,0.00,VWS V14.01,2013-09-06 04:18:00,
2013-09-06 00:19:00,55.1,45.1,30.20,NNE,24,0.0,239.4,69,1.02,,,0.00,VWS V14.01,2013-09-06 04:19:00,
2013-09-06 00:20:00,56.0,45.3,30.19,NE,51,0.0,239.4,67,1.02,,,0.00,VWS V14.01,2013-09-06 04:20:00,
2013-09-06 00:21:00,55.9,45.1,30.19,NE,51,0.0,239.4,67,1.02,,,0.00,VWS V14.01,2013-09-06 04:21:00,
2013-09-06 00:22:00,54.9,44.9,30.20,NE,51,0.0,239.4,69,1.02,,,0.00,VWS V14.01,2013-09-06 04:22:00,
2013-09-06 00:23:00,54.9,44.9,30.20,NE,51,0.0,239.4,69,1.02,,,0.00,VWS V14.01,2013-09-06 04:23:00,
2013-09-06 00:24:00,54.8,44.8,30.20,ENE,70,1.6,239.4,69,1.02,,,0.00,VWS V14.01,2013-09-06 04:24:00,
2013-09-06 00:25:00,54.9,44.8,30.20,NE,46,0.0,239.4,69,1.02,,,0.00,VWS V14.01,2013-09-06 04:25:00,
2013-09-06 00:26:00,55.8,45.0,30.19,NE,46,0.0,239.4,67,1.02,,,0.00,VWS V14.01,2013-09-06 04:26:00,
2013-09-06 00:27:00,54.8,44.8,30.20,NE,46,0.0,239.4,69,1.02,,,0.00,VWS V14.01,2013-09-06 04:27:00,
2013-09-06 00:28:00,54.9,45.0,30.20,NE,53,2.8,239.4,69,1.02,,,0.00,VWS V14.01,2013-09-06 04:28:00,
2013-09-06 00:29:00,54.8,45.1,30.20,NE,53,4.2,239.4,70,1.02,,,0.00,VWS V14.01,2013-09-06 04:29:00,
2013-09-06 00:30:00,54.9,45.2,30.20,NE,35,0.0,239.4,70,1.02,,,0.00,VWS V14.01,2013-09-06 04:30:00,
2013-09-06 00:31:00,55.7,44.8,30.20,NE,46,0.0,239.4,67,1.02,,,0.00,VWS V14.01,2013-09-06 04:31:00,
2013-09-06 00:32:00,54.8,45.0,30.20,NE,49,2.5,239.4,70,1.02,,,0.00,VWS V14.01,2013-09-06 04:32:00,
2013-09-06 00:33:00,54.7,45.0,30.20,NE,46,3.0,239.4,70,1.02,,,0.00,VWS V14.01,2013-09-06 04:33:00,
2013-09-06 00:34:00,54.7,44.9,30.20,NE,48,0.0,239.4,69,1.02,,,0.00,VWS V14.01,2013-09-06 04:34:00,
2013-09-06 00:35:00,54.7,45.0,30.20,NE,48,0.0,239.4,70,1.02,,,0.00,VWS V14.01,2013-09-06 04:35:00,
2013-09-06 00:36:00,54.7,45.0,30.20,NE,48,0.0,239.4,70,1.02,,,0.00,VWS V14.01,2013-09-06 04:36:00,
2013-09-06 00:37:00,55.5,44.6,30.19,NE,49,0.0,239.4,67,1.02,,,0.00,VWS V14.01,2013-09-06 04:37:00,
2013-09-06 00:38:00,54.8,45.1,30.20,NE,44,0.0,239.4,70,1.02,,,0.00,VWS V14.01,2013-09-06 04:38:00,
2013-09-06 00:39:00,54.6,45.0,30.20,ENE,63,3.5,239.4,70,1.02,,,0.00,VWS V14.01,2013-09-06 04:39:00,
2013-09-06 00:40:00,54.6,45.1,30.20,NE,52,0.0,239.4,70,1.02,,,0.00,VWS V14.01,2013-09-06 04:40:00,
2013-09-06 00:41:00,54.6,45.0,30.20,NE,44,0.0,239.4,70,1.02,,,0.00,VWS V14.01,2013-09-06 04:41:00,
2013-09-06 00:42:00,55.5,45.0,30.19,NE,52,0.0,239.4,68,1.02,,,0.00,VWS V14.01,2013-09-06 04:42:00,
2013-09-06 00:43:00,54.6,45.1,30.20,NE,56,0.0,239.4,70,1.02,,,0.00,VWS V14.01,2013-09-06 04:43:00,
2013-09-06 00:44:00,54.6,45.1,30.20,NE,55,0.0,239.4,70,1.02,,,0.00,VWS V14.01,2013-09-06 04:44:00,
2013-09-06 00:45:00,54.5,44.9,30.20,NE,55,0.0,239.4,70,1.02,,,0.00,VWS V14.01,2013-09-06 04:45:00,
2013-09-06 00:46:00,54.6,45.0,30.20,NE,55,3.4,239.4,70,1.02,,,0.00,VWS V14.01,2013-09-06 04:46:00,
2013-09-06 00:47:00,55.5,45.2,30.20,NE,52,0.0,239.4,68,1.02,,,0.00,VWS V14.01,2013-09-06 04:47:00,
2013-09-06 00:48:00,54.5,45.0,30.20,NE,49,0.0,239.4,70,1.02,,,0.00,VWS V14.01,2013-09-06 04:48:00,
2013-09-06 00:49:00,54.5,45.2,30.20,NE,49,0.0,239.4,71,1.02,,,0.00,VWS V14.01,2013-09-06 04:49:00,
2013-09-06 00:50:00,54.5,45.3,30.20,NE,49,0.0,239.4,71,1.02,,,0.00,VWS V14.01,2013-09-06 04:50:00,
2013-09-06 00:51:00,54.5,45.3,30.20,NE,49,0.0,239.4,71,1.02,,,0.00,VWS V14.01,2013-09-06 04:51:00,
2013-09-06 00:52:00,55.2,45.0,30.19,NE,37,0.0,239.4,68,1.02,,,0.00,VWS V14.01,2013-09-06 04:52:00,
2013-09-06 00:53:00,54.5,45.6,30.20,NE,49,0.0,239.4,72,1.02,,,0.00,VWS V14.01,2013-09-06 04:53:00,
2013-09-06 00:54:00,54.4,45.4,30.20,NE,51,0.0,239.4,72,1.02,,,0.00,VWS V14.01,2013-09-06 04:54:00,
2013-09-06 00:55:00,54.4,45.6,30.20,NE,55,3.4,239.4,72,1.02,,,0.00,VWS V14.01,2013-09-06 04:55:00,
2013-09-06 00:56:00,54.4,45.4,30.20,ENE,59,0.0,239.4,72,1.02,,,0.00,VWS V14.01,2013-09-06 04:56:00,
2013-09-06 00:57:00,54.3,45.3,30.20,ENE,59,0.0,239.4,71,1.02,,,0.00,VWS V14.01,2013-09-06 04:57:00,
2013-09-06 00:58:00,54.2,45.3,30.20,ENE,59,0.0,239.4,72,1.02,,,0.00,VWS V14.01,2013-09-06 04:58:00,
2013-09-06 00:59:00,54.3,45.4,30.20,NE,45,1.4,239.4,72,1.02,,,0.00,VWS V14.01,2013-09-06 04:59:00,
2013-09-06 01:00:00,54.3,45.6,30.20,NE,45,0.0,239.4,72,1.02,,,0.00,VWS V14.01,2013-09-06 05:00:00,
2013-09-06 01:01:00,54.3,45.9,30.20,NE,37,3.1,239.4,73,1.02,,,0.00,VWS V14.01,2013-09-06 05:01:00,
2013-09-06 01:02:00,54.1,45.3,30.20,ENE,73,0.0,239.4,72,1.02,,,0.00,VWS V14.01,2013-09-06 05:02:00,
2013-09-06 01:03:00,54.3,45.4,30.20,NE,49,2.9,239.4,72,1.02,,,0.00,VWS V14.01,2013-09-06 05:03:00,
2013-09-06 01:04:00,54.2,45.3,30.20,ENE,65,3.0,239.4,72,1.02,,,0.00,VWS V14.01,2013-09-06 05:04:00,
2013-09-06 01:05:00,54.0,45.2,30.20,ENE,58,0.0,239.4,72,1.02,,,0.00,VWS V14.01,2013-09-06 05:05:00,
2013-09-06 01:06:00,54.2,45.4,30.20,NE,51,0.0,239.4,72,1.02,,,0.00,VWS V14.01,2013-09-06 05:06:00,
2013-09-06 01:07:00,54.1,45.2,30.20,NE,53,3.4,239.4,72,1.02,,,0.00,VWS V14.01,2013-09-06 05:07:00,
2013-09-06 01:09:00,54.1,45.5,30.20,NE,49,0.0,239.4,73,1.02,,,0.00,VWS V14.01,2013-09-06 05:09:00,
2013-09-06 01:10:00,54.0,45.4,30.20,NE,49,0.0,239.4,72,1.02,,,0.00,VWS V14.01,2013-09-06 05:10:00,
2013-09-06 01:11:00,54.1,45.3,30.20,NE,48,0.0,239.4,72,1.02,,,0.00,VWS V14.01,2013-09-06 05:11:00,
2013-09-06 01:12:00,54.1,45.3,30.20,NE,37,2.0,239.4,72,1.02,,,0.00,VWS V14.01,2013-09-06 05:12:00,
2013-09-06 01:13:00,54.1,45.4,30.20,NE,53,0.0,239.4,72,1.02,,,0.00,VWS V14.01,2013-09-06 05:13:00,
2013-09-06 01:14:00,54.0,45.3,30.20,ENE,58,4.7,239.4,72,1.02,,,0.00,VWS V14.01,2013-09-06 05:14:00,
2013-09-06 01:15:00,54.0,45.4,30.20,ENE,68,4.3,239.4,73,1.02,,,0.00,VWS V14.01,2013-09-06 05:15:00,
2013-09-06 01:16:00,53.8,45.1,30.20,ENE,59,0.0,239.4,72,1.02,,,0.00,VWS V14.01,2013-09-06 05:16:00,
2013-09-06 01:17:00,54.0,45.5,30.20,NE,53,3.0,239.4,73,1.02,,,0.00,VWS V14.01,2013-09-06 05:17:00,
2013-09-06 01:18:00,53.8,45.2,30.20,NE,37,0.0,239.4,73,1.02,,,0.00,VWS V14.01,2013-09-06 05:18:00,
2013-09-06 01:19:00,53.9,45.4,30.20,NE,37,0.0,239.4,73,1.02,,,0.00,VWS V14.01,2013-09-06 05:19:00,
2013-09-06 01:20:00,53.7,45.4,30.20,NE,53,0.0,239.4,73,1.02,,,0.00,VWS V14.01,2013-09-06 05:20:00,
2013-09-06 01:21:00,53.7,45.3,30.20,NE,51,2.6,239.4,73,1.02,,,0.00,VWS V14.01,2013-09-06 05:21:00,
2013-09-06 01:22:00,53.7,45.2,30.20,NE,51,0.0,239.4,73,1.02,,,0.00,VWS V14.01,2013-09-06 05:22:00,
2013-09-06 01:23:00,53.7,45.3,30.20,NE,51,0.0,239.4,73,1.02,,,0.00,VWS V14.01,2013-09-06 05:23:00,
2013-09-06 01:25:00,53.7,45.4,30.20,NE,51,0.0,239.4,73,1.02,,,0.00,VWS V14.01,2013-09-06 05:25:00,
2013-09-06 01:26:00,53.7,45.4,30.20,NE,51,0.0,239.4,73,1.02,,,0.00,VWS V14.01,2013-09-06 05:26:00,
2013-09-06 01:27:00,53.7,45.5,30.20,NE,51,0.0,239.4,74,1.02,,,0.00,VWS V14.01,2013-09-06 05:27:00,
2013-09-06 01:29:00,53.6,45.3,30.20,NNE,27,0.0,239.4,73,1.02,,,0.00,VWS V14.01,2013-09-06 05:29:00,
2013-09-06 01:30:00,53.5,45.1,30.21,NNE,27,0.0,239.4,73,1.02,,,0.00,VWS V14.01,2013-09-06 05:30:00,
2013-09-06 01:31:00,53.6,45.3,30.21,NNE,27,0.0,239.4,73,1.02,,,0.00,VWS V14.01,2013-09-06 05:31:00,
2013-09-06 01:32:00,53.5,45.3,30.21,NNE,27,0.0,239.4,74,1.02,,,0.00,VWS V14.01,2013-09-06 05:32:00,
2013-09-06 01:33:00,53.5,45.3,30.21,NNE,27,0.0,239.4,74,1.02,,,0.00,VWS V14.01,2013-09-06 05:33:00,
2013-09-06 01:34:00,53.5,45.4,30.20,NNE,27,0.0,239.4,74,1.02,,,0.00,VWS V14.01,2013-09-06 05:34:00,
2013-09-06 01:37:00,53.5,45.4,30.20,NE,53,0.0,239.4,74,1.02,,,0.00,VWS V14.01,2013-09-06 05:37:00,
2013-09-06 01:38:00,53.5,45.4,30.20,NE,53,0.0,239.4,74,1.02,,,0.00,VWS V14.01,2013-09-06 05:38:00,
2013-09-06 01:40:00,53.5,45.6,30.21,NE,53,0.0,239.4,74,1.02,,,0.00,VWS V14.01,2013-09-06 05:40:00,
2013-09-06 01:42:00,53.4,45.5,30.21,NE,52,0.0,239.4,75,1.02,,,0.00,VWS V14.01,2013-09-06 05:42:00,
2013-09-06 01:43:00,53.4,45.6,30.21,NE,52,0.0,239.4,75,1.02,,,0.00,VWS V14.01,2013-09-06 05:43:00,
2013-09-06 01:47:00,53.3,45.4,30.21,ENE,59,0.0,239.4,74,1.02,,,0.00,VWS V14.01,2013-09-06 05:47:00,
2013-09-06 01:49:00,53.3,45.5,30.21,ENE,59,0.0,239.4,75,1.02,,,0.00,VWS V14.01,2013-09-06 05:49:00,
2013-09-06 01:50:00,53.2,45.3,30.21,ENE,59,0.0,239.4,75,1.02,,,0.00,VWS V14.01,2013-09-06 05:50:00,
2013-09-06 01:53:00,53.2,45.6,30.21,ENE,59,0.0,239.4,75,1.02,,,0.00,VWS V14.01,2013-09-06 05:53:00,
2013-09-06 01:55:00,53.1,45.5,30.21,ENE,59,0.0,239.4,75,1.02,,,0.00,VWS V14.01,2013-09-06 05:55:00,
2013-09-06 02:21:00,53.8,45.7,30.20,NE,51,0.0,239.4,74,1.02,,,0.00,VWS V14.01,2013-09-06 06:21:00,
2013-09-06 02:32:00,53.5,45.5,30.20,ENE,63,4.2,239.4,74,1.02,,,0.00,VWS V14.01,2013-09-06 06:32:00,
2013-09-06 02:37:00,53.4,45.5,30.21,NE,52,0.0,239.4,75,1.02,,,0.00,VWS V14.01,2013-09-06 06:37:00,
2013-09-06 02:43:00,53.3,45.5,30.21,ENE,59,0.0,239.4,75,1.02,,,0.00,VWS V14.01,2013-09-06 06:43:00,
2013-09-06 02:48:00,53.2,45.5,30.21,ENE,59,0.0,239.4,75,1.02,,,0.00,VWS V14.01,2013-09-06 06:48:00,
2013-09-06 02:53:00,53.2,45.8,30.21,ENE,59,0.0,239.4,76,1.02,,,0.00,VWS V14.01,2013-09-06 06:53:00,
2013-09-06 02:58:00,53.0,45.8,30.21,ENE,59,0.0,239.4,76,1.02,,,0.00,VWS V14.01,2013-09-06 06:58:00,
2013-09-06 03:03:00,53.1,45.8,30.21,NE,51,0.0,239.4,76,1.02,,,0.00,VWS V14.01,2013-09-06 07:03:00,
2013-09-06 03:09:00,52.8,45.6,30.21,NE,45,0.0,239.4,76,1.02,,,0.00,VWS V14.01,2013-09-06 07:09:00,
2013-09-06 03:14:00,52.7,45.5,30.21,NE,45,0.0,239.4,76,1.02,,,0.00,VWS V14.01,2013-09-06 07:14:00,
2013-09-06 03:19:00,52.5,45.9,30.21,NE,45,0.0,239.4,78,1.02,,,0.00,VWS V14.01,2013-09-06 07:19:00,
2013-09-06 03:24:00,52.2,45.6,30.21,ENE,58,0.0,239.4,78,1.02,,,0.00,VWS V14.01,2013-09-06 07:24:00,
2013-09-06 03:29:00,52.4,45.6,30.22,ENE,58,0.0,239.4,78,1.02,,,0.00,VWS V14.01,2013-09-06 07:29:00,
2013-09-06 03:35:00,52.3,45.7,30.22,ENE,58,0.0,239.4,78,1.02,,,0.00,VWS V14.01,2013-09-06 07:35:00,
2013-09-06 03:40:00,52.1,46.0,30.23,ENE,58,0.0,239.4,80,1.02,,,0.00,VWS V14.01,2013-09-06 07:40:00,
2013-09-06 03:45:00,52.0,46.5,30.23,ENE,58,0.0,239.4,81,1.02,,,0.00,VWS V14.01,2013-09-06 07:45:00,
2013-09-06 03:50:00,51.9,46.0,30.23,ENE,66,5.0,239.4,80,1.02,,,0.00,VWS V14.01,2013-09-06 07:50:00,
2013-09-06 03:55:00,52.0,46.0,30.23,ENE,65,0.0,239.4,80,1.02,,,0.00,VWS V14.01,2013-09-06 07:55:00,
2013-09-06 04:00:00,51.9,46.2,30.22,ENE,65,0.0,239.4,81,1.02,,,0.00,VWS V14.01,2013-09-06 08:00:00,
2013-09-06 04:06:00,51.8,46.2,30.22,NE,55,0.0,239.4,81,1.02,,,0.00,VWS V14.01,2013-09-06 08:06:00,
2013-09-06 04:11:00,52.0,46.2,30.22,ENE,65,4.4,239.4,81,1.02,,,0.00,VWS V14.01,2013-09-06 08:11:00,
2013-09-06 04:16:00,51.6,46.2,30.22,NE,51,0.0,239.4,82,1.02,,,0.00,VWS V14.01,2013-09-06 08:16:00,
2013-09-06 04:21:00,51.4,46.3,30.22,NE,51,0.0,239.4,83,1.02,,,0.00,VWS V14.01,2013-09-06 08:21:00,
2013-09-06 04:26:00,51.4,46.5,30.22,NE,51,0.0,239.4,83,1.02,,,0.00,VWS V14.01,2013-09-06 08:26:00,
2013-09-06 04:32:00,51.1,46.2,30.23,NE,51,0.0,239.4,83,1.02,,,0.00,VWS V14.01,2013-09-06 08:32:00,
2013-09-06 04:37:00,51.2,46.5,30.22,NE,51,0.0,239.4,84,1.02,,,0.00,VWS V14.01,2013-09-06 08:37:00,
2013-09-06 04:42:00,51.1,46.5,30.22,NE,55,3.2,239.4,84,1.02,,,0.00,VWS V14.01,2013-09-06 08:42:00,
2013-09-06 04:47:00,50.9,46.2,30.22,ENE,65,0.0,239.4,84,1.02,,,0.00,VWS V14.01,2013-09-06 08:47:00,
2013-09-06 04:52:00,51.0,46.5,30.22,NE,48,0.0,239.4,84,1.02,,,0.00,VWS V14.01,2013-09-06 08:52:00,
2013-09-06 04:58:00,50.9,46.6,30.23,NE,51,0.0,239.4,85,1.02,,,0.00,VWS V14.01,2013-09-06 08:58:00,
2013-09-06 05:03:00,50.8,46.5,30.23,ENE,60,0.0,239.4,85,1.02,,,0.00,VWS V14.01,2013-09-06 09:03:00,
2013-09-06 05:08:00,50.8,46.5,30.23,ENE,63,5.5,239.4,85,1.02,,,0.00,VWS V14.01,2013-09-06 09:08:00,
2013-09-06 05:13:00,50.7,46.4,30.23,NE,38,2.3,239.4,85,1.02,,,0.00,VWS V14.01,2013-09-06 09:13:00,
2013-09-06 05:18:00,50.7,46.0,30.23,ENE,63,4.3,239.4,84,1.02,,,0.00,VWS V14.01,2013-09-06 09:18:00,
2013-09-06 05:24:00,50.7,45.9,30.23,ENE,63,0.0,239.4,84,1.02,,,0.00,VWS V14.01,2013-09-06 09:24:00,
2013-09-06 05:29:00,50.8,46.0,30.23,ENE,63,0.0,239.4,83,1.02,,,0.00,VWS V14.01,2013-09-06 09:29:00,
2013-09-06 05:34:00,50.7,45.8,30.23,ENE,63,0.0,239.4,83,1.02,,,0.00,VWS V14.01,2013-09-06 09:34:00,
2013-09-06 05:39:00,50.8,45.9,30.24,ENE,63,0.0,239.4,83,1.02,,,0.00,VWS V14.01,2013-09-06 09:39:00,
2013-09-06 05:44:00,50.7,45.7,30.24,ENE,63,0.0,239.4,83,1.02,,,0.00,VWS V14.01,2013-09-06 09:44:00,
2013-09-06 05:50:00,50.7,45.5,30.24,ENE,62,0.0,239.4,82,1.02,,,0.00,VWS V14.01,2013-09-06 09:50:00,
2013-09-06 05:55:00,50.6,45.4,30.24,ENE,62,0.0,239.4,82,1.02,,,0.00,VWS V14.01,2013-09-06 09:55:00,
2013-09-06 06:00:00,50.6,45.4,30.24,ENE,62,0.0,239.4,82,1.02,,,0.00,VWS V14.01,2013-09-06 10:00:00,
2013-09-06 06:06:00,50.6,45.5,30.24,ENE,62,0.0,239.4,83,1.02,,,0.00,VWS V14.01,2013-09-06 10:06:00,
2013-09-06 06:11:00,50.5,45.3,30.24,ENE,62,0.0,239.4,82,1.02,,,0.00,VWS V14.01,2013-09-06 10:11:00,
2013-09-06 06:16:00,50.5,45.4,30.25,ENE,62,0.0,239.4,83,1.02,,,0.00,VWS V14.01,2013-09-06 10:16:00,
2013-09-06 06:21:00,50.5,45.7,30.25,ENE,62,0.0,239.4,84,1.02,,,0.00,VWS V14.01,2013-09-06 10:21:00,
2013-09-06 06:27:00,50.2,45.8,30.24,ENE,62,0.0,239.4,85,1.02,,,0.00,VWS V14.01,2013-09-06 10:27:00,
2013-09-06 06:32:00,50.2,45.9,30.25,ENE,62,0.0,239.4,85,1.02,,,0.00,VWS V14.01,2013-09-06 10:32:00,
2013-09-06 06:38:00,50.1,45.9,30.25,ENE,62,0.0,239.4,85,1.02,,,0.00,VWS V14.01,2013-09-06 10:38:00,
2013-09-06 06:43:00,50.2,45.9,30.25,ENE,62,0.0,239.4,85,1.02,,,0.00,VWS V14.01,2013-09-06 10:43:00,
2013-09-06 06:48:00,49.9,45.8,30.25,ENE,62,0.0,239.4,86,1.02,,,0.00,VWS V14.01,2013-09-06 10:48:00,
2013-09-06 06:54:00,49.9,45.8,30.26,ENE,62,0.0,239.4,86,1.02,,,0.00,VWS V14.01,2013-09-06 10:54:00,
2013-09-06 06:59:00,50.0,45.9,30.26,ENE,62,0.0,239.4,86,1.02,,,0.00,VWS V14.01,2013-09-06 10:59:00,
2013-09-06 07:04:00,50.1,45.8,30.26,ENE,62,0.0,239.4,85,1.02,,,0.00,VWS V14.01,2013-09-06 11:04:00,
2013-09-06 07:10:00,50.2,45.6,30.26,NE,55,0.0,239.4,84,1.02,,,0.00,VWS V14.01,2013-09-06 11:10:00,
2013-09-06 07:15:00,50.3,45.6,30.26,NE,56,3.0,239.4,84,1.02,,,0.00,VWS V14.01,2013-09-06 11:15:00,
2013-09-06 07:21:00,50.6,45.8,30.26,NE,56,0.0,239.4,84,1.02,,,0.00,VWS V14.01,2013-09-06 11:21:00,
2013-09-06 07:26:00,50.9,46.0,30.26,NE,56,0.0,239.4,83,1.02,,,0.00,VWS V14.01,2013-09-06 11:26:00,
2013-09-06 07:33:00,51.1,46.0,30.27,NE,56,0.0,239.4,83,1.02,,,0.00,VWS V14.01,2013-09-06 11:33:00,
2013-09-06 07:38:00,51.5,46.2,30.27,NE,56,0.0,239.4,82,1.02,,,0.00,VWS V14.01,2013-09-06 11:38:00,
2013-09-06 07:44:00,51.8,46.5,30.27,NE,56,0.0,239.4,82,1.02,,,0.00,VWS V14.01,2013-09-06 11:44:00,
2013-09-06 07:50:00,52.2,46.6,30.27,NE,44,0.0,239.4,81,1.02,,,0.00,VWS V14.01,2013-09-06 11:50:00,
2013-09-06 07:55:00,52.4,46.3,30.27,NE,37,0.0,239.4,80,1.02,,,0.00,VWS V14.01,2013-09-06 11:55:00,
2013-09-06 08:01:00,52.9,46.9,30.27,NE,37,0.0,239.4,80,1.02,,,0.00,VWS V14.01,2013-09-06 12:01:00,
2013-09-06 08:06:00,53.4,47.1,30.27,NE,37,0.0,239.4,79,1.02,,,0.00,VWS V14.01,2013-09-06 12:06:00,
2013-09-06 08:11:00,53.6,46.7,30.27,NE,37,0.0,239.4,77,1.02,,,0.00,VWS V14.01,2013-09-06 12:11:00,
2013-09-06 08:16:00,53.9,46.5,30.27,NE,52,0.0,239.4,76,1.02,,,0.00,VWS V14.01,2013-09-06 12:16:00,
2013-09-06 08:22:00,54.1,46.5,30.27,NE,49,0.0,239.4,75,1.02,,,0.00,VWS V14.01,2013-09-06 12:22:00,
2013-09-06 08:27:00,54.3,46.5,30.27,NE,49,0.0,239.4,75,1.02,,,0.00,VWS V14.01,2013-09-06 12:27:00,
2013-09-06 08:32:00,54.6,46.8,30.28,NE,49,0.0,239.4,75,1.02,,,0.00,VWS V14.01,2013-09-06 12:32:00,
2013-09-06 08:37:00,54.8,46.4,30.28,NE,49,0.0,239.4,73,1.02,,,0.00,VWS V14.01,2013-09-06 12:37:00,
2013-09-06 08:42:00,55.2,46.6,30.28,NE,49,0.0,239.4,73,1.02,,,0.00,VWS V14.01,2013-09-06 12:42:00,
2013-09-06 08:48:00,55.5,46.0,30.28,NE,49,0.0,239.4,70,1.02,,,0.00,VWS V14.01,2013-09-06 12:48:00,
2013-09-06 08:53:00,55.7,45.9,30.28,NE,51,2.5,239.4,70,1.02,,,0.00,VWS V14.01,2013-09-06 12:53:00,
2013-09-06 08:58:00,56.1,45.8,30.28,NE,56,0.0,239.4,68,1.02,,,0.00,VWS V14.01,2013-09-06 12:58:00,
2013-09-06 09:03:00,56.5,45.5,30.28,NE,49,0.0,239.4,67,1.02,,,0.00,VWS V14.01,2013-09-06 13:03:00,
2013-09-06 09:08:00,57.0,46.3,30.28,NE,39,0.0,239.4,67,1.02,,,0.00,VWS V14.01,2013-09-06 13:08:00,
2013-09-06 09:13:00,57.4,46.1,30.28,NE,39,0.0,239.4,66,1.02,,,0.00,VWS V14.01,2013-09-06 13:13:00,
2013-09-06 09:19:00,58.0,45.7,30.28,NE,39,0.0,239.4,63,1.02,,,0.00,VWS V14.01,2013-09-06 13:19:00,
2013-09-06 09:24:00,58.4,45.2,30.28,NE,44,0.0,239.4,61,1.02,,,0.00,VWS V14.01,2013-09-06 13:24:00,
2013-09-06 09:29:00,59.1,46.5,30.28,NE,48,0.0,239.4,63,1.02,,,0.00,VWS V14.01,2013-09-06 13:29:00,
2013-09-06 09:34:00,59.9,46.4,30.28,ENE,69,0.0,239.4,61,1.02,,,0.00,VWS V14.01,2013-09-06 13:34:00,
2013-09-06 09:39:00,60.3,43.9,30.28,NE,53,0.0,239.4,55,1.02,,,0.00,VWS V14.01,2013-09-06 13:39:00,
2013-09-06 09:44:00,60.4,43.8,30.28,ENE,68,0.0,239.4,54,1.02,,,0.00,VWS V14.01,2013-09-06 13:44:00,
2013-09-06 09:50:00,60.8,43.0,30.28,ENE,68,0.0,239.4,52,1.02,,,0.00,VWS V14.01,2013-09-06 13:50:00,
2013-09-06 09:55:00,60.9,42.4,30.28,NE,37,0.0,239.4,50,1.02,,,0.00,VWS V14.01,2013-09-06 13:55:00,
2013-09-06 10:00:00,61.3,42.9,30.28,NE,37,0.0,239.4,51,1.02,,,0.00,VWS V14.01,2013-09-06 14:00:00,
2013-09-06 10:05:00,61.8,43.6,30.28,ENE,58,0.0,239.4,51,1.02,,,0.00,VWS V14.01,2013-09-06 14:05:00,
2013-09-06 10:10:00,62.0,46.2,30.28,ENE,58,0.0,239.4,56,1.02,,,0.00,VWS V14.01,2013-09-06 14:10:00,
2013-09-06 10:16:00,62.2,44.1,30.28,ENE,58,0.0,239.4,52,1.02,,,0.00,VWS V14.01,2013-09-06 14:16:00,
2013-09-06 10:21:00,62.4,43.6,30.28,South,177,0.0,239.4,50,1.02,,,0.00,VWS V14.01,2013-09-06 14:21:00,
2013-09-06 10:26:00,62.5,43.5,30.28,South,177,0.0,239.4,50,1.02,,,0.00,VWS V14.01,2013-09-06 14:26:00,
2013-09-06 10:31:00,62.2,42.6,30.28,South,177,0.0,239.4,49,1.02,,,0.00,VWS V14.01,2013-09-06 14:31:00,
2013-09-06 10:37:00,61.7,42.6,30.28,NE,38,0.0,239.4,49,1.02,,,0.00,VWS V14.01,2013-09-06 14:37:00,
2013-09-06 10:42:00,62.0,43.2,30.28,NE,38,0.0,239.4,50,1.02,,,0.00,VWS V14.01,2013-09-06 14:42:00,
2013-09-06 10:47:00,62.5,43.6,30.28,NE,38,0.0,239.4,50,1.02,,,0.00,VWS V14.01,2013-09-06 14:47:00,
2013-09-06 10:53:00,62.5,43.4,30.28,NE,53,0.0,239.4,50,1.02,,,0.00,VWS V14.01,2013-09-06 14:53:00,
2013-09-06 10:58:00,62.4,42.5,30.28,ENE,63,0.0,239.4,48,1.02,,,0.00,VWS V14.01,2013-09-06 14:58:00,
2013-09-06 11:03:00,62.6,43.2,30.28,ENE,63,0.0,239.4,49,1.02,,,0.00,VWS V14.01,2013-09-06 15:03:00,
2013-09-06 11:09:00,62.8,43.8,30.28,NE,42,0.0,239.4,50,1.02,,,0.00,VWS V14.01,2013-09-06 15:09:00,
2013-09-06 11:14:00,63.4,44.2,30.28,NNE,21,0.0,239.4,50,1.02,,,0.00,VWS V14.01,2013-09-06 15:14:00,
2013-09-06 11:19:00,63.6,44.4,30.28,NE,53,0.0,239.4,50,1.02,,,0.00,VWS V14.01,2013-09-06 15:19:00,
2013-09-06 11:24:00,63.6,43.8,30.28,ENE,58,0.0,239.4,48,1.02,,,0.00,VWS V14.01,2013-09-06 15:24:00,
2013-09-06 11:29:00,63.9,42.2,30.28,ENE,60,3.3,239.4,45,1.02,,,0.00,VWS V14.01,2013-09-06 15:29:00,
2013-09-06 11:34:00,63.8,43.8,30.28,NE,46,0.0,239.4,48,1.02,,,0.00,VWS V14.01,2013-09-06 15:34:00,
2013-09-06 11:40:00,63.5,44.2,30.28,NE,46,0.0,239.4,49,1.02,,,0.00,VWS V14.01,2013-09-06 15:40:00,
2013-09-06 11:45:00,63.7,43.3,30.28,NNE,30,0.0,239.4,47,1.02,,,0.00,VWS V14.01,2013-09-06 15:45:00,
2013-09-06 11:50:00,64.6,44.4,30.28,NNE,30,0.0,239.4,48,1.02,,,0.00,VWS V14.01,2013-09-06 15:50:00,
2013-09-06 11:55:00,64.9,43.7,30.28,NNE,32,2.4,239.4,46,1.02,,,0.00,VWS V14.01,2013-09-06 15:55:00,
2013-09-06 12:00:00,65.3,43.7,30.28,NE,39,0.0,239.4,46,1.02,,,0.00,VWS V14.01,2013-09-06 16:00:00,
2013-09-06 12:06:00,65.4,42.4,30.28,ENE,66,0.0,239.4,43,1.02,,,0.00,VWS V14.01,2013-09-06 16:06:00,
2013-09-06 12:11:00,65.7,42.7,30.28,NE,49,3.0,239.4,43,1.02,,,0.00,VWS V14.01,2013-09-06 16:11:00,
2013-09-06 12:16:00,66.0,43.2,30.28,NE,56,0.0,239.4,44,1.02,,,0.00,VWS V14.01,2013-09-06 16:16:00,
2013-09-06 12:21:00,66.1,44.3,30.27,NE,56,0.0,239.4,45,1.02,,,0.00,VWS V14.01,2013-09-06 16:21:00,
2013-09-06 12:26:00,66.4,44.5,30.27,NNE,25,3.5,239.4,45,1.02,,,0.00,VWS V14.01,2013-09-06 16:26:00,
2013-09-06 12:32:00,66.2,44.4,30.27,ENE,65,0.0,239.4,45,1.02,,,0.00,VWS V14.01,2013-09-06 16:32:00,
2013-09-06 12:37:00,66.0,43.0,30.27,NE,49,0.0,239.4,43,1.02,,,0.00,VWS V14.01,2013-09-06 16:37:00,
2013-09-06 12:43:00,65.6,42.1,30.27,NE,37,0.0,239.4,42,1.02,,,0.00,VWS V14.01,2013-09-06 16:43:00,
2013-09-06 12:48:00,66.1,42.5,30.27,NE,56,0.0,239.4,42,1.02,,,0.00,VWS V14.01,2013-09-06 16:48:00,
2013-09-06 12:53:00,66.3,42.7,30.27,ENE,60,0.0,239.4,42,1.02,,,0.00,VWS V14.01,2013-09-06 16:53:00,
2013-09-06 12:58:00,66.8,44.2,30.27,ENE,60,0.0,239.4,44,1.02,,,0.00,VWS V14.01,2013-09-06 16:58:00,
2013-09-06 13:04:00,67.5,45.3,30.26,NE,41,3.0,239.4,45,1.02,,,0.00,VWS V14.01,2013-09-06 17:04:00,
2013-09-06 13:09:00,67.5,44.3,30.26,NNE,28,0.0,239.4,43,1.02,,,0.00,VWS V14.01,2013-09-06 17:09:00,
2013-09-06 13:14:00,67.4,43.5,30.26,NNE,28,0.0,239.4,42,1.02,,,0.00,VWS V14.01,2013-09-06 17:14:00,
2013-09-06 13:19:00,67.8,44.4,30.26,NE,42,0.0,239.4,43,1.02,,,0.00,VWS V14.01,2013-09-06 17:19:00,
2013-09-06 13:24:00,68.4,44.3,30.26,NE,42,0.0,239.4,42,1.02,,,0.00,VWS V14.01,2013-09-06 17:24:00,
2013-09-06 13:29:00,68.6,45.1,30.26,NE,42,0.0,239.4,43,1.02,,,0.00,VWS V14.01,2013-09-06 17:29:00,
2013-09-06 13:35:00,69.0,44.3,30.26,NE,45,0.0,239.4,41,1.02,,,0.00,VWS V14.01,2013-09-06 17:35:00,
2013-09-06 13:40:00,69.4,44.6,30.26,NE,52,3.2,239.4,41,1.02,,,0.00,VWS V14.01,2013-09-06 17:40:00,
2013-09-06 13:45:00,69.4,44.8,30.26,NE,38,0.0,239.4,41,1.02,,,0.00,VWS V14.01,2013-09-06 17:45:00,
2013-09-06 13:50:00,69.8,43.5,30.26,NE,38,0.0,239.4,39,1.02,,,0.00,VWS V14.01,2013-09-06 17:50:00,
2013-09-06 13:56:00,70.5,43.9,30.25,NE,38,0.0,239.4,38,1.02,,,0.00,VWS V14.01,2013-09-06 17:56:00,
2013-09-06 14:01:00,70.2,45.2,30.25,NE,38,0.0,239.4,41,1.02,,,0.00,VWS V14.01,2013-09-06 18:01:00,
2013-09-06 14:06:00,69.8,44.5,30.25,NE,37,0.0,239.4,40,1.02,,,0.00,VWS V14.01,2013-09-06 18:06:00,
2013-09-06 14:11:00,70.1,43.6,30.24,NNE,32,0.0,239.4,38,1.02,,,0.00,VWS V14.01,2013-09-06 18:11:00,
2013-09-06 14:17:00,70.7,43.1,30.24,NE,37,0.0,239.4,37,1.02,,,0.00,VWS V14.01,2013-09-06 18:17:00,
2013-09-06 14:22:00,71.1,43.0,30.24,NE,37,0.0,239.4,36,1.02,,,0.00,VWS V14.01,2013-09-06 18:22:00,
2013-09-06 14:27:00,71.2,44.5,30.23,NE,37,0.0,239.4,38,1.02,,,0.00,VWS V14.01,2013-09-06 18:27:00,
2013-09-06 14:33:00,71.1,45.2,30.23,NE,37,0.0,239.4,39,1.02,,,0.00,VWS V14.01,2013-09-06 18:33:00,
2013-09-06 14:38:00,71.4,45.0,30.23,NE,37,0.0,239.4,39,1.02,,,0.00,VWS V14.01,2013-09-06 18:38:00,
2013-09-06 14:44:00,71.8,44.6,30.23,ENE,62,0.0,239.4,38,1.02,,,0.00,VWS V14.01,2013-09-06 18:44:00,
2013-09-06 14:49:00,72.1,45.0,30.22,ENE,62,0.0,239.4,38,1.02,,,0.00,VWS V14.01,2013-09-06 18:49:00,
2013-09-06 14:55:00,71.8,42.7,30.22,NE,42,0.0,239.4,35,1.02,,,0.00,VWS V14.01,2013-09-06 18:55:00,
2013-09-06 15:00:00,72.2,43.5,30.22,NE,42,0.0,239.4,36,1.02,,,0.00,VWS V14.01,2013-09-06 19:00:00,
2013-09-06 15:06:00,72.6,44.3,30.22,NE,42,0.0,239.4,36,1.02,,,0.00,VWS V14.01,2013-09-06 19:06:00,
2013-09-06 15:11:00,72.0,44.8,30.21,NE,42,0.0,239.4,38,1.02,,,0.00,VWS V14.01,2013-09-06 19:11:00,
2013-09-06 15:16:00,72.1,45.7,30.21,NE,45,0.0,239.4,39,1.02,,,0.00,VWS V14.01,2013-09-06 19:16:00,
2013-09-06 15:22:00,72.6,44.9,30.21,NE,45,0.0,239.4,37,1.02,,,0.00,VWS V14.01,2013-09-06 19:22:00,
2013-09-06 15:27:00,72.7,44.0,30.21,NE,45,0.0,239.4,36,1.02,,,0.00,VWS V14.01,2013-09-06 19:27:00,
2013-09-06 15:32:00,72.8,44.9,30.21,NE,44,0.0,239.4,37,1.02,,,0.00,VWS V14.01,2013-09-06 19:32:00,
2013-09-06 15:38:00,72.7,45.9,30.21,ENE,60,0.0,239.4,38,1.02,,,0.00,VWS V14.01,2013-09-06 19:38:00,
2013-09-06 15:43:00,72.9,45.3,30.20,NE,35,0.0,239.4,37,1.02,,,0.00,VWS V14.01,2013-09-06 19:43:00,
2013-09-06 15:48:00,73.3,45.9,30.20,NE,35,0.0,239.4,38,1.02,,,0.00,VWS V14.01,2013-09-06 19:48:00,
2013-09-06 15:53:00,72.8,44.5,30.20,NE,35,0.0,239.4,36,1.02,,,0.00,VWS V14.01,2013-09-06 19:53:00,
2013-09-06 15:58:00,72.5,43.8,30.20,NE,35,0.0,239.4,36,1.02,,,0.00,VWS V14.01,2013-09-06 19:58:00,
2013-09-06 16:04:00,72.6,44.7,30.20,NE,35,0.0,239.4,37,1.02,,,0.00,VWS V14.01,2013-09-06 20:04:00,
2013-09-06 16:09:00,72.8,44.5,30.20,NE,35,0.0,239.4,36,1.02,,,0.00,VWS V14.01,2013-09-06 20:09:00,
2013-09-06 16:14:00,73.1,44.8,30.19,NE,35,0.0,239.4,36,1.02,,,0.00,VWS V14.01,2013-09-06 20:14:00,
2013-09-06 16:19:00,72.4,44.5,30.20,NE,35,0.0,239.4,37,1.02,,,0.00,VWS V14.01,2013-09-06 20:19:00,
2013-09-06 16:24:00,72.2,45.0,30.19,NE,35,0.0,239.4,38,1.02,,,0.00,VWS V14.01,2013-09-06 20:24:00,
2013-09-06 16:30:00,72.6,45.6,30.19,NE,35,0.0,239.4,38,1.02,,,0.00,VWS V14.01,2013-09-06 20:30:00,
2013-09-06 16:35:00,72.7,45.5,30.19,NE,35,0.0,239.4,38,1.02,,,0.00,VWS V14.01,2013-09-06 20:35:00,
2013-09-06 16:40:00,72.4,44.3,30.19,NNE,13,0.0,239.4,36,1.02,,,0.00,VWS V14.01,2013-09-06 20:40:00,
2013-09-06 16:45:00,72.5,45.3,30.19,NNE,13,0.0,239.4,38,1.02,,,0.00,VWS V14.01,2013-09-06 20:45:00,
2013-09-06 16:50:00,72.4,45.2,30.19,NE,49,0.0,239.4,38,1.02,,,0.00,VWS V14.01,2013-09-06 20:50:00,
2013-09-06 16:56:00,71.7,43.3,30.19,NE,49,0.0,239.4,36,1.02,,,0.00,VWS V14.01,2013-09-06 20:56:00,
2013-09-06 17:01:00,70.7,43.8,30.19,ENE,63,0.0,239.4,38,1.02,,,0.00,VWS V14.01,2013-09-06 21:01:00,
2013-09-06 17:06:00,70.1,43.5,30.19,ENE,63,0.0,239.4,38,1.02,,,0.00,VWS V14.01,2013-09-06 21:06:00,
2013-09-06 17:11:00,69.7,44.3,30.19,ENE,63,0.0,239.4,40,1.02,,,0.00,VWS V14.01,2013-09-06 21:11:00,
2013-09-06 17:16:00,69.2,43.8,30.19,ENE,63,0.0,239.4,40,1.02,,,0.00,VWS V14.01,2013-09-06 21:16:00,
2013-09-06 17:22:00,69.2,45.1,30.19,ENE,63,0.0,239.4,42,1.02,,,0.00,VWS V14.01,2013-09-06 21:22:00,
2013-09-06 17:27:00,68.8,43.6,30.19,ENE,63,0.0,239.4,40,1.02,,,0.00,VWS V14.01,2013-09-06 21:27:00,
2013-09-06 17:32:00,68.4,44.0,30.19,ENE,63,0.0,239.4,41,1.02,,,0.00,VWS V14.01,2013-09-06 21:32:00,
2013-09-06 17:37:00,68.0,43.1,30.19,NNE,30,2.4,239.4,40,1.02,,,0.00,VWS V14.01,2013-09-06 21:37:00,
2013-09-06 17:42:00,68.0,43.8,30.19,NNE,30,0.0,239.4,42,1.02,,,0.00,VWS V14.01,2013-09-06 21:42:00,
2013-09-06 17:48:00,67.6,43.8,30.19,NNE,30,0.0,239.4,42,1.02,,,0.00,VWS V14.01,2013-09-06 21:48:00,
2013-09-06 17:53:00,67.4,43.3,30.19,NNE,30,0.0,239.4,42,1.02,,,0.00,VWS V14.01,2013-09-06 21:53:00,
2013-09-06 17:58:00,67.3,43.6,30.19,NNE,30,0.0,239.4,42,1.02,,,0.00,VWS V14.01,2013-09-06 21:58:00,
2013-09-06 18:03:00,67.1,43.3,30.19,NNE,30,0.0,239.4,42,1.02,,,0.00,VWS V14.01,2013-09-06 22:03:00,
2013-09-06 18:08:00,66.8,43.5,30.19,NNE,30,0.0,239.4,43,1.02,,,0.00,VWS V14.01,2013-09-06 22:08:00,
2013-09-06 18:14:00,66.4,43.2,30.19,NNE,30,0.0,239.4,43,1.02,,,0.00,VWS V14.01,2013-09-06 22:14:00,
2013-09-06 18:19:00,66.2,43.6,30.19,NNE,30,0.0,239.4,44,1.02,,,0.00,VWS V14.01,2013-09-06 22:19:00,
2013-09-06 18:24:00,66.0,44.1,30.19,NNE,30,0.0,239.4,45,1.02,,,0.00,VWS V14.01,2013-09-06 22:24:00,
2013-09-06 18:29:00,65.7,44.0,30.19,NNE,30,0.0,239.4,45,1.02,,,0.00,VWS V14.01,2013-09-06 22:29:00,
2013-09-06 18:34:00,65.4,44.3,30.19,NNE,30,0.0,239.4,46,1.02,,,0.00,VWS V14.01,2013-09-06 22:34:00,
2013-09-06 18:40:00,65.2,45.0,30.18,NNE,30,0.0,239.4,48,1.02,,,0.00,VWS V14.01,2013-09-06 22:40:00,
2013-09-06 18:45:00,65.2,45.2,30.18,NNE,30,0.0,239.4,48,1.02,,,0.00,VWS V14.01,2013-09-06 22:45:00,
2013-09-06 18:50:00,64.9,47.0,30.18,NNE,30,0.0,239.4,52,1.02,,,0.00,VWS V14.01,2013-09-06 22:50:00,
2013-09-06 18:55:00,64.4,47.2,30.18,NNE,30,0.0,239.4,54,1.02,,,0.00,VWS V14.01,2013-09-06 22:55:00,
2013-09-06 19:00:00,64.1,47.9,30.18,NNE,30,0.0,239.4,56,1.02,,,0.00,VWS V14.01,2013-09-06 23:00:00,
2013-09-06 19:06:00,63.7,48.6,30.18,NNE,30,0.0,239.4,58,1.02,,,0.00,VWS V14.01,2013-09-06 23:06:00,
2013-09-06 19:11:00,63.3,49.1,30.18,NNE,30,0.0,239.4,60,1.02,,,0.00,VWS V14.01,2013-09-06 23:11:00,
2013-09-06 19:16:00,62.9,49.4,30.18,NNE,30,0.0,239.4,61,1.02,,,0.00,VWS V14.01,2013-09-06 23:16:00,
2013-09-06 19:21:00,62.4,50.0,30.18,NNE,30,0.0,239.4,64,1.02,,,0.00,VWS V14.01,2013-09-06 23:21:00,
2013-09-06 19:26:00,61.8,49.7,30.18,NNE,30,0.0,239.4,64,1.02,,,0.00,VWS V14.01,2013-09-06 23:26:00,
2013-09-06 19:32:00,61.3,49.5,30.18,NNE,30,0.0,239.4,65,1.02,,,0.00,VWS V14.01,2013-09-06 23:32:00,
2013-09-06 19:37:00,60.7,49.9,30.18,NNE,30,0.0,239.4,68,1.02,,,0.00,VWS V14.01,2013-09-06 23:37:00,
2013-09-06 19:42:00,60.1,49.8,30.18,NNE,30,0.0,239.4,69,1.02,,,0.00,VWS V14.01,2013-09-06 23:42:00,
2013-09-06 19:47:00,59.6,49.8,30.18,NNE,30,0.0,239.4,70,1.02,,,0.00,VWS V14.01,2013-09-06 23:47:00,
2013-09-06 19:52:00,59.2,49.6,30.18,NNE,30,0.0,239.4,70,1.02,,,0.00,VWS V14.01,2013-09-06 23:52:00,
2013-09-06 19:57:00,58.9,49.8,30.18,NNE,30,0.0,239.4,72,1.02,,,0.00,VWS V14.01,2013-09-06 23:57:00,
2013-09-06 20:03:00,58.7,49.6,30.18,NNE,30,0.0,239.4,72,1.02,,,0.00,VWS V14.01,2013-09-07 00:03:00,
2013-09-06 20:08:00,58.2,49.5,30.18,NNE,30,0.0,239.4,73,1.02,,,0.00,VWS V14.01,2013-09-07 00:08:00,
2013-09-06 20:14:00,57.8,49.2,30.18,NNE,30,0.0,239.4,73,1.02,,,0.00,VWS V14.01,2013-09-07 00:14:00,
2013-09-06 20:19:00,57.5,49.0,30.18,NNE,30,0.0,239.4,73,1.02,,,0.00,VWS V14.01,2013-09-07 00:19:00,
2013-09-06 20:24:00,57.2,49.2,30.18,NNE,30,0.0,239.4,75,1.02,,,0.00,VWS V14.01,2013-09-07 00:24:00,
2013-09-06 20:30:00,56.9,49.0,30.18,NNE,30,0.0,239.4,75,1.02,,,0.00,VWS V14.01,2013-09-07 00:30:00,
2013-09-06 20:35:00,56.4,48.7,30.18,NNE,30,0.0,239.4,75,1.02,,,0.00,VWS V14.01,2013-09-07 00:35:00,
2013-09-06 20:40:00,56.3,48.7,30.18,NNE,30,0.0,239.4,76,1.02,,,0.00,VWS V14.01,2013-09-07 00:40:00,
2013-09-06 20:45:00,56.1,48.4,30.18,NNE,30,0.0,239.4,75,1.02,,,0.00,VWS V14.01,2013-09-07 00:45:00,
2013-09-06 20:50:00,55.9,48.3,30.18,NNE,30,0.0,239.4,76,1.02,,,0.00,VWS V14.01,2013-09-07 00:50:00,
2013-09-06 20:56:00,55.7,48.1,30.18,NNE,30,0.0,239.4,76,1.02,,,0.00,VWS V14.01,2013-09-07 00:56:00,
2013-09-06 21:01:00,55.3,47.8,30.18,NNE,30,0.0,239.4,76,1.02,,,0.00,VWS V14.01,2013-09-07 01:01:00,
2013-09-06 21:06:00,55.0,47.5,30.18,NNE,30,0.0,239.4,76,1.02,,,0.00,VWS V14.01,2013-09-07 01:06:00,
2013-09-06 21:12:00,55.0,47.3,30.18,NNE,30,0.0,239.4,75,1.02,,,0.00,VWS V14.01,2013-09-07 01:12:00,
2013-09-06 21:17:00,54.8,47.2,30.18,NNE,30,0.0,239.4,75,1.02,,,0.00,VWS V14.01,2013-09-07 01:17:00,
2013-09-06 21:22:00,54.6,47.7,30.18,NNE,30,0.0,239.4,77,1.02,,,0.00,VWS V14.01,2013-09-07 01:22:00,
2013-09-06 21:28:00,54.3,47.4,30.18,NNE,30,0.0,239.4,78,1.02,,,0.00,VWS V14.01,2013-09-07 01:28:00,
2013-09-06 21:33:00,54.1,47.4,30.18,NNE,30,0.0,239.4,78,1.02,,,0.00,VWS V14.01,2013-09-07 01:33:00,
2013-09-06 21:39:00,54.1,48.0,30.17,NNE,30,0.0,239.4,80,1.02,,,0.00,VWS V14.01,2013-09-07 01:39:00,
2013-09-06 21:44:00,54.0,48.1,30.18,NNE,30,0.0,239.4,80,1.02,,,0.00,VWS V14.01,2013-09-07 01:44:00,
2013-09-06 21:49:00,53.9,48.0,30.17,NNE,30,0.0,239.4,80,1.02,,,0.00,VWS V14.01,2013-09-07 01:49:00,
2013-09-06 21:55:00,53.9,47.8,30.17,NNE,30,0.0,239.4,80,1.02,,,0.00,VWS V14.01,2013-09-07 01:55:00,
2013-09-06 22:00:00,53.7,47.6,30.17,NNE,30,0.0,239.4,80,1.02,,,0.00,VWS V14.01,2013-09-07 02:00:00,
2013-09-06 22:06:00,53.6,48.0,30.17,NNE,30,0.0,239.4,81,1.02,,,0.00,VWS V14.01,2013-09-07 02:06:00,
2013-09-06 22:11:00,53.5,48.0,30.17,NNE,30,0.0,239.4,82,1.02,,,0.00,VWS V14.01,2013-09-07 02:11:00,
2013-09-06 22:16:00,53.4,48.0,30.17,NNE,30,0.0,239.4,82,1.02,,,0.00,VWS V14.01,2013-09-07 02:16:00,
2013-09-06 22:21:00,53.5,48.1,30.17,NNE,30,0.0,239.4,82,1.02,,,0.00,VWS V14.01,2013-09-07 02:21:00,
2013-09-06 22:27:00,53.3,47.9,30.17,NNE,30,0.0,239.4,82,1.02,,,0.00,VWS V14.01,2013-09-07 02:27:00,
2013-09-06 22:32:00,53.1,47.7,30.17,NNE,30,0.0,239.4,82,1.02,,,0.00,VWS V14.01,2013-09-07 02:32:00,
2013-09-06 22:37:00,53.1,47.6,30.17,NNE,30,0.0,239.4,81,1.02,,,0.00,VWS V14.01,2013-09-07 02:37:00,
2013-09-06 22:42:00,53.0,47.5,30.17,NNE,30,0.0,239.4,82,1.02,,,0.00,VWS V14.01,2013-09-07 02:42:00,
2013-09-06 22:47:00,52.9,47.0,30.17,NNE,30,0.0,239.4,80,1.02,,,0.00,VWS V14.01,2013-09-07 02:47:00,
2013-09-06 22:53:00,53.0,47.2,30.17,NNE,30,0.0,239.4,81,1.02,,,0.00,VWS V14.01,2013-09-07 02:53:00,
2013-09-06 22:58:00,52.8,47.4,30.17,NNE,30,0.0,239.4,82,1.02,,,0.00,VWS V14.01,2013-09-07 02:58:00,
2013-09-06 23:03:00,52.7,47.0,30.17,NNE,30,0.0,239.4,81,1.02,,,0.00,VWS V14.01,2013-09-07 03:03:00,
2013-09-06 23:08:00,52.7,46.8,30.17,NNE,30,0.0,239.4,80,1.02,,,0.00,VWS V14.01,2013-09-07 03:08:00,
2013-09-06 23:13:00,52.4,46.8,30.16,NNE,30,0.0,239.4,81,1.02,,,0.00,VWS V14.01,2013-09-07 03:13:00,
2013-09-06 23:19:00,52.4,47.0,30.16,NNE,30,0.0,239.4,82,1.02,,,0.00,VWS V14.01,2013-09-07 03:19:00,
2013-09-06 23:24:00,52.3,46.9,30.16,NNE,30,0.0,239.4,82,1.02,,,0.00,VWS V14.01,2013-09-07 03:24:00,
2013-09-06 23:29:00,52.2,47.0,30.16,NNE,30,0.0,239.4,82,1.02,,,0.00,VWS V14.01,2013-09-07 03:29:00,
2013-09-06 23:34:00,52.2,47.2,30.16,NNE,30,0.0,239.4,83,1.02,,,0.00,VWS V14.01,2013-09-07 03:34:00,
2013-09-06 23:39:00,52.0,47.3,30.16,NNE,30,0.0,239.4,84,1.02,,,0.00,VWS V14.01,2013-09-07 03:39:00,
2013-09-06 23:45:00,52.0,47.9,30.16,NNE,30,0.0,239.4,86,1.02,,,0.00,VWS V14.01,2013-09-07 03:45:00,
2013-09-06 23:50:00,51.8,47.6,30.16,NNE,30,0.0,239.4,86,1.02,,,0.00,VWS V14.01,2013-09-07 03:50:00,
2013-09-06 23:55:00,51.8,47.6,30.15,NNE,30,0.0,239.4,86,1.02,,,0.00,VWS V14.01,2013-09-07 03:55:00,